INTELSAT 25 (IS-25)

Last updated on Fri Oct 11 2024 00:02:39 GMT+0000 (Coordinated Universal Time)

1 33153U 08034A 24284.59277774 -.00000218 00000+0 00000+0 0 9998 2 33153 1.1126 87.8359 0002973 111.0647 2.7203 1.00271549 59534
UTC large
Height (km)
Speed (km/s)
/
Latitude / Longitude
Inclination (degrees)
Orbital Period (minutes)
Azimuth
Elevation
Range (km)
Doppler Factor

Next 0 passes for location: London (51.5072 / 0.1276)

Sorry there are no passes over London.